Time,TemperatureF,DewpointF,PressureIn,WindDirection,WindDirectionDegrees,WindSpeedMPH,WindSpeedGustMPH,Humidity,HourlyPrecipIn,Conditions,Clouds,dailyrainin,SoftwareType,DateUTC
2013-07-23 00:01:00,67.5,64.5,29.77,NNW,347,0.0,0.0,90,0.00,RA,,0.00,WeatherDisplay:10.37,2013-07-23 04:01:00,
2013-07-23 00:02:00,67.5,64.5,29.77,NNW,347,0.0,0.0,90,0.00,RA,,0.00,WeatherDisplay:10.37,2013-07-23 04:02:00,
2013-07-23 00:03:00,67.5,64.5,29.77,NNW,347,0.0,0.0,90,0.00,RA,,0.00,WeatherDisplay:10.37,2013-07-23 04:03:00,
2013-07-23 00:08:00,67.5,64.1,29.77,NNW,347,0.0,0.0,89,0.00,RA,,0.00,WeatherDisplay:10.37,2013-07-23 04:08:00,
2013-07-23 00:13:00,67.5,64.1,29.77,NNW,347,0.0,0.0,89,0.02,,,0.00,WeatherDisplay:10.37,2013-07-23 04:13:00,
2013-07-23 00:18:00,67.5,64.1,29.77,NNW,347,0.0,0.0,89,0.02,,,0.00,WeatherDisplay:10.37,2013-07-23 04:18:00,
2013-07-23 00:23:00,67.5,64.1,29.77,NNW,347,0.0,0.0,89,0.02,,,0.00,WeatherDisplay:10.37,2013-07-23 04:23:00,
2013-07-23 00:28:00,67.5,64.1,29.77,NNW,347,0.0,0.0,89,0.02,,,0.00,WeatherDisplay:10.37,2013-07-23 04:28:00,
2013-07-23 00:33:00,67.5,64.1,29.76,NNW,347,0.0,0.0,89,0.01,,,0.00,WeatherDisplay:10.37,2013-07-23 04:33:00,
2013-07-23 00:38:00,67.5,64.1,29.76,NNW,347,0.0,0.0,89,0.01,,,0.00,WeatherDisplay:10.37,2013-07-23 04:38:00,
2013-07-23 00:43:00,67.5,64.1,29.76,North,6,0.0,0.0,89,0.01,,,0.00,WeatherDisplay:10.37,2013-07-23 04:43:00,
2013-07-23 00:48:00,67.5,64.1,29.76,North,6,0.0,0.0,89,0.00,,,0.00,WeatherDisplay:10.37,2013-07-23 04:48:00,
2013-07-23 00:53:00,67.5,63.8,29.76,North,6,0.0,0.0,88,0.01,RA,,0.01,WeatherDisplay:10.37,2013-07-23 04:53:00,
2013-07-23 00:58:00,67.5,63.8,29.75,North,6,0.0,0.0,88,0.01,RA,,0.01,WeatherDisplay:10.37,2013-07-23 04:58:00,
2013-07-23 01:03:00,67.6,63.9,29.75,North,6,0.0,0.0,88,0.01,,,0.01,WeatherDisplay:10.37,2013-07-23 05:03:00,
2013-07-23 01:08:00,67.6,63.9,29.75,SW,214,0.0,0.0,88,0.01,,,0.01,WeatherDisplay:10.37,2013-07-23 05:08:00,
2013-07-23 01:13:00,67.7,64.0,29.75,SSW,209,0.0,0.0,88,0.01,,,0.01,WeatherDisplay:10.37,2013-07-23 05:13:00,
2013-07-23 01:18:00,67.8,64.1,29.75,SSW,210,1.1,0.0,88,0.01,,,0.01,WeatherDisplay:10.37,2013-07-23 05:18:00,
2013-07-23 01:23:00,67.9,64.2,29.75,SSW,210,1.1,1.1,88,0.01,,,0.01,WeatherDisplay:10.37,2013-07-23 05:23:00,
2013-07-23 01:28:00,68.0,64.3,29.74,SSW,193,1.1,0.0,88,0.02,RA,,0.02,WeatherDisplay:10.37,2013-07-23 05:28:00,
2013-07-23 01:33:00,68.1,64.4,29.74,SSW,193,0.0,0.0,88,0.02,RA,,0.02,WeatherDisplay:10.37,2013-07-23 05:33:00,
2013-07-23 01:38:00,68.1,64.4,29.74,SSW,193,0.0,0.0,88,0.02,,,0.02,WeatherDisplay:10.37,2013-07-23 05:38:00,
2013-07-23 01:43:00,68.2,64.5,29.73,SSW,193,0.0,0.0,88,0.02,,,0.02,WeatherDisplay:10.37,2013-07-23 05:43:00,
2013-07-23 01:48:00,68.3,64.6,29.73,SSW,193,0.0,0.0,88,0.02,,,0.02,WeatherDisplay:10.37,2013-07-23 05:48:00,
2013-07-23 01:53:00,68.3,64.6,29.73,SSW,194,0.0,0.3,88,0.01,,,0.02,WeatherDisplay:10.37,2013-07-23 05:53:00,
2013-07-23 01:58:00,68.3,64.6,29.73,South,190,0.0,0.0,88,0.01,,,0.02,WeatherDisplay:10.37,2013-07-23 05:58:00,
2013-07-23 02:03:00,68.4,64.7,29.73,South,190,0.0,0.0,88,0.01,,,0.02,WeatherDisplay:10.37,2013-07-23 06:03:00,
2013-07-23 02:08:00,68.4,64.7,29.73,SSW,193,0.0,0.0,88,0.01,,,0.02,WeatherDisplay:10.37,2013-07-23 06:08:00,
2013-07-23 02:13:00,68.4,64.7,29.73,SSW,193,0.0,0.0,88,0.01,,,0.02,WeatherDisplay:10.37,2013-07-23 06:13:00,
2013-07-23 02:18:00,68.5,64.5,29.72,South,184,1.1,0.0,87,0.01,,,0.02,WeatherDisplay:10.37,2013-07-23 06:18:00,
2013-07-23 02:23:00,68.5,64.8,29.72,South,183,0.0,0.0,88,0.01,,,0.02,WeatherDisplay:10.37,2013-07-23 06:23:00,
2013-07-23 02:28:00,68.5,64.8,29.72,South,183,0.0,0.0,88,0.00,,,0.02,WeatherDisplay:10.37,2013-07-23 06:28:00,
2013-07-23 02:33:00,68.6,64.9,29.72,East,89,0.0,0.0,88,0.00,,,0.02,WeatherDisplay:10.37,2013-07-23 06:33:00,
2013-07-23 02:38:00,68.6,64.9,29.72,East,89,0.0,0.0,88,0.00,,,0.02,WeatherDisplay:10.37,2013-07-23 06:38:00,
2013-07-23 02:43:00,68.6,64.9,29.72,East,89,0.0,0.0,88,0.00,,,0.02,WeatherDisplay:10.37,2013-07-23 06:43:00,
2013-07-23 02:48:00,68.6,64.9,29.72,East,89,0.0,0.0,88,0.00,,,0.02,WeatherDisplay:10.37,2013-07-23 06:48:00,
2013-07-23 02:53:00,68.6,64.9,29.72,East,89,0.0,0.0,88,0.00,,,0.02,WeatherDisplay:10.37,2013-07-23 06:53:00,
2013-07-23 02:58:00,68.7,65.0,29.72,East,89,0.0,0.0,88,0.00,,,0.02,WeatherDisplay:10.37,2013-07-23 06:58:00,
2013-07-23 03:03:00,68.7,65.0,29.71,East,89,0.0,0.0,88,0.00,,,0.02,WeatherDisplay:10.37,2013-07-23 07:03:00,
2013-07-23 03:08:00,68.8,65.1,29.72,East,89,0.0,0.0,88,0.00,,,0.02,WeatherDisplay:10.37,2013-07-23 07:08:00,
2013-07-23 03:13:00,68.8,65.1,29.72,East,89,0.0,0.0,88,0.01,RA,,0.03,WeatherDisplay:10.37,2013-07-23 07:13:00,
2013-07-23 03:18:00,68.8,65.1,29.72,East,89,0.0,0.0,88,0.01,RA,,0.03,WeatherDisplay:10.37,2013-07-23 07:18:00,
2013-07-23 03:23:00,68.7,65.0,29.71,East,89,0.0,0.0,88,0.01,,,0.03,WeatherDisplay:10.37,2013-07-23 07:23:00,
2013-07-23 03:28:00,68.7,65.0,29.71,East,89,0.0,0.0,88,0.01,,,0.03,WeatherDisplay:10.37,2013-07-23 07:28:00,
2013-07-23 03:33:00,68.6,64.9,29.71,East,89,0.0,0.0,88,0.01,,,0.03,WeatherDisplay:10.37,2013-07-23 07:33:00,
2013-07-23 03:38:00,68.6,64.9,29.70,East,89,0.0,0.0,88,0.02,RA,,0.04,WeatherDisplay:10.37,2013-07-23 07:38:00,
2013-07-23 03:43:00,68.6,64.9,29.70,East,89,0.0,0.0,88,0.02,RA,,0.04,WeatherDisplay:10.37,2013-07-23 07:43:00,
2013-07-23 03:48:00,68.6,64.9,29.70,East,89,0.0,0.0,88,0.02,,,0.04,WeatherDisplay:10.37,2013-07-23 07:48:00,
2013-07-23 03:53:00,68.6,64.9,29.70,East,89,0.0,0.0,88,0.02,,,0.04,WeatherDisplay:10.37,2013-07-23 07:53:00,
2013-07-23 03:58:00,68.7,65.0,29.70,East,89,0.0,0.0,88,0.02,,,0.04,WeatherDisplay:10.37,2013-07-23 07:58:00,
2013-07-23 04:03:00,68.6,64.9,29.70,East,89,0.0,0.0,88,0.02,,,0.04,WeatherDisplay:10.37,2013-07-23 08:03:00,
2013-07-23 04:08:00,68.6,64.9,29.70,East,89,0.0,0.0,88,0.02,,,0.04,WeatherDisplay:10.37,2013-07-23 08:08:00,
2013-07-23 04:13:00,68.5,64.8,29.70,East,89,0.0,0.0,88,0.01,,,0.04,WeatherDisplay:10.37,2013-07-23 08:13:00,
2013-07-23 04:18:00,68.5,64.8,29.70,East,89,0.0,0.0,88,0.01,,,0.04,WeatherDisplay:10.37,2013-07-23 08:18:00,
2013-07-23 04:23:00,68.5,64.8,29.70,East,89,0.0,0.0,88,0.01,,,0.04,WeatherDisplay:10.37,2013-07-23 08:23:00,
2013-07-23 04:28:00,68.5,64.8,29.70,East,89,0.0,0.0,88,0.01,,,0.04,WeatherDisplay:10.37,2013-07-23 08:28:00,
2013-07-23 04:33:00,68.5,64.8,29.70,East,89,0.0,0.0,88,0.01,,,0.04,WeatherDisplay:10.37,2013-07-23 08:33:00,
2013-07-23 04:38:00,68.5,64.8,29.70,East,89,0.0,0.0,88,0.01,RA,,0.05,WeatherDisplay:10.37,2013-07-23 08:38:00,
2013-07-23 04:43:00,68.6,64.9,29.70,East,89,0.0,0.0,88,0.01,RA,,0.05,WeatherDisplay:10.37,2013-07-23 08:43:00,
2013-07-23 04:48:00,68.6,64.9,29.70,East,89,0.0,0.0,88,0.01,,,0.05,WeatherDisplay:10.37,2013-07-23 08:48:00,
2013-07-23 04:53:00,68.6,64.9,29.69,East,89,0.0,0.0,88,0.01,,,0.05,WeatherDisplay:10.37,2013-07-23 08:53:00,
2013-07-23 04:58:00,68.6,64.9,29.70,East,89,0.0,0.0,88,0.01,,,0.05,WeatherDisplay:10.37,2013-07-23 08:58:00,
2013-07-23 05:03:00,68.6,64.9,29.70,NW,325,0.0,0.0,88,0.01,,,0.05,WeatherDisplay:10.37,2013-07-23 09:03:00,
2013-07-23 05:08:00,68.7,65.0,29.70,NW,324,0.0,0.0,88,0.01,,,0.05,WeatherDisplay:10.37,2013-07-23 09:08:00,
2013-07-23 05:13:00,68.6,64.9,29.70,NW,325,0.0,0.0,88,0.01,,,0.05,WeatherDisplay:10.37,2013-07-23 09:13:00,
2013-07-23 05:18:00,68.7,65.0,29.69,NW,324,0.0,0.0,88,0.02,RA,,0.06,WeatherDisplay:10.37,2013-07-23 09:18:00,
2013-07-23 05:23:00,68.8,65.1,29.69,NW,324,0.0,0.0,88,0.02,RA,,0.06,WeatherDisplay:10.37,2013-07-23 09:23:00,
2013-07-23 05:28:00,68.7,65.0,29.69,NW,324,0.0,0.0,88,0.02,,,0.06,WeatherDisplay:10.37,2013-07-23 09:28:00,
2013-07-23 05:33:00,68.7,65.0,29.69,NW,324,0.0,0.0,88,0.02,,,0.06,WeatherDisplay:10.37,2013-07-23 09:33:00,
2013-07-23 05:38:00,68.7,65.0,29.69,NW,324,0.0,0.0,88,0.01,,,0.06,WeatherDisplay:10.37,2013-07-23 09:38:00,
2013-07-23 05:43:00,68.7,65.0,29.69,NW,325,0.0,0.0,88,0.01,,,0.06,WeatherDisplay:10.37,2013-07-23 09:43:00,
2013-07-23 05:48:00,68.7,65.0,29.69,NW,325,0.0,0.0,88,0.01,,,0.06,WeatherDisplay:10.37,2013-07-23 09:48:00,
2013-07-23 05:53:00,68.7,65.0,29.69,NW,325,0.0,0.0,88,0.01,,,0.06,WeatherDisplay:10.37,2013-07-23 09:53:00,
2013-07-23 05:58:00,68.7,65.0,29.69,NW,324,0.0,0.0,88,0.01,,,0.06,WeatherDisplay:10.37,2013-07-23 09:58:00,
2013-07-23 06:03:00,68.6,64.9,29.69,NW,325,0.0,0.0,88,0.01,,,0.06,WeatherDisplay:10.37,2013-07-23 10:03:00,
2013-07-23 06:08:00,68.6,64.9,29.69,NW,324,0.0,0.0,88,0.01,,,0.06,WeatherDisplay:10.37,2013-07-23 10:08:00,
2013-07-23 06:13:00,68.6,64.9,29.69,NW,325,0.0,0.0,88,0.01,,,0.06,WeatherDisplay:10.37,2013-07-23 10:13:00,
2013-07-23 06:18:00,68.7,65.0,29.69,NW,324,0.0,0.0,88,0.00,,,0.06,WeatherDisplay:10.37,2013-07-23 10:18:00,
2013-07-23 06:23:00,68.7,65.0,29.69,NW,325,0.0,0.0,88,0.00,,,0.06,WeatherDisplay:10.37,2013-07-23 10:23:00,
2013-07-23 06:28:00,68.7,65.0,29.69,NW,324,0.0,0.0,88,0.00,,,0.06,WeatherDisplay:10.37,2013-07-23 10:28:00,
2013-07-23 06:33:00,68.7,65.0,29.69,NW,325,0.0,0.0,88,0.00,,,0.06,WeatherDisplay:10.37,2013-07-23 10:33:00,
2013-07-23 06:38:00,68.7,65.0,29.69,NW,325,0.0,0.0,88,0.01,RA,,0.07,WeatherDisplay:10.37,2013-07-23 10:38:00,
2013-07-23 06:43:00,68.7,65.0,29.69,NW,325,0.0,0.0,88,0.01,RA,,0.07,WeatherDisplay:10.37,2013-07-23 10:43:00,
2013-07-23 06:48:00,68.7,65.0,29.69,NW,325,0.0,0.0,88,0.01,,,0.07,WeatherDisplay:10.37,2013-07-23 10:48:00,
2013-07-23 06:53:00,68.6,64.9,29.69,NW,325,0.0,0.0,88,0.01,,,0.07,WeatherDisplay:10.37,2013-07-23 10:53:00,
2013-07-23 06:58:00,68.6,64.9,29.69,WSW,246,0.0,0.0,88,0.01,,,0.07,WeatherDisplay:10.37,2013-07-23 10:58:00,
2013-07-23 07:03:00,68.6,64.9,29.69,WSW,246,0.0,0.0,88,0.01,,,0.07,WeatherDisplay:10.37,2013-07-23 11:03:00,
2013-07-23 07:08:00,68.6,64.9,29.69,WSW,247,0.0,0.0,88,0.01,,,0.07,WeatherDisplay:10.37,2013-07-23 11:08:00,
2013-07-23 07:13:00,68.6,64.9,29.69,WSW,248,0.0,0.0,88,0.01,,,0.07,WeatherDisplay:10.37,2013-07-23 11:13:00,
2013-07-23 07:18:00,68.6,64.9,29.68,WSW,246,0.0,0.0,88,0.01,,,0.07,WeatherDisplay:10.37,2013-07-23 11:18:00,
2013-07-23 07:23:00,68.8,65.1,29.68,WSW,246,0.0,0.0,88,0.01,,,0.07,WeatherDisplay:10.37,2013-07-23 11:23:00,
2013-07-23 07:28:00,69.0,65.3,29.69,WSW,246,0.0,0.0,88,0.01,,,0.07,WeatherDisplay:10.37,2013-07-23 11:28:00,
2013-07-23 07:33:00,69.1,65.4,29.69,WSW,246,0.0,0.0,88,0.01,,,0.07,WeatherDisplay:10.37,2013-07-23 11:33:00,
2013-07-23 07:38:00,69.1,65.4,29.69,WSW,247,0.0,0.0,88,0.00,,,0.07,WeatherDisplay:10.37,2013-07-23 11:38:00,
2013-07-23 07:43:00,69.2,65.5,29.69,WSW,248,0.0,0.0,88,0.00,,,0.07,WeatherDisplay:10.37,2013-07-23 11:43:00,
2013-07-23 07:48:00,69.1,65.4,29.69,WSW,248,0.0,0.0,88,0.00,,,0.07,WeatherDisplay:10.37,2013-07-23 11:48:00,
2013-07-23 07:53:00,69.2,65.5,29.69,WSW,248,0.0,0.0,88,0.00,,,0.07,WeatherDisplay:10.37,2013-07-23 11:53:00,
2013-07-23 07:58:00,69.4,65.7,29.69,WSW,247,0.0,0.0,88,0.00,,,0.07,WeatherDisplay:10.37,2013-07-23 11:58:00,
2013-07-23 08:03:00,69.4,65.7,29.69,WSW,248,0.0,0.0,88,0.00,,,0.07,WeatherDisplay:10.37,2013-07-23 12:03:00,
2013-07-23 08:08:00,69.2,65.5,29.69,WSW,248,0.0,0.0,88,0.00,,,0.07,WeatherDisplay:10.37,2013-07-23 12:08:00,
2013-07-23 08:13:00,68.9,65.5,29.69,SSE,149,0.0,0.0,89,0.00,,,0.07,WeatherDisplay:10.37,2013-07-23 12:13:00,
2013-07-23 08:14:00,68.9,65.5,29.69,SSE,149,0.0,0.0,89,0.00,,,0.07,WeatherDisplay:10.37,2013-07-23 12:14:00,
2013-07-23 08:19:00,68.8,65.4,29.69,SE,127,0.0,0.0,89,0.00,,,0.07,WeatherDisplay:10.37,2013-07-23 12:19:00,
2013-07-23 08:24:00,68.9,65.5,29.69,SE,127,0.0,0.0,89,0.00,,,0.07,WeatherDisplay:10.37,2013-07-23 12:24:00,
2013-07-23 08:29:00,69.0,65.6,29.69,SE,127,0.0,0.0,89,0.00,,,0.07,WeatherDisplay:10.37,2013-07-23 12:29:00,
2013-07-23 08:34:00,68.9,65.5,29.68,SSE,165,0.0,0.0,89,0.00,,,0.07,WeatherDisplay:10.37,2013-07-23 12:34:00,
2013-07-23 08:39:00,69.1,65.7,29.68,SSE,165,0.0,0.0,89,0.00,,,0.07,WeatherDisplay:10.37,2013-07-23 12:39:00,
2013-07-23 08:44:00,69.2,65.8,29.68,SSE,165,0.0,0.0,89,0.00,,,0.07,WeatherDisplay:10.37,2013-07-23 12:44:00,
2013-07-23 08:49:00,69.2,66.1,29.68,SSE,161,0.0,0.0,90,0.00,,,0.07,WeatherDisplay:10.37,2013-07-23 12:49:00,
2013-07-23 08:54:00,69.2,66.1,29.68,SSE,160,0.0,0.0,90,0.00,,,0.07,WeatherDisplay:10.37,2013-07-23 12:54:00,
2013-07-23 08:59:00,69.1,66.4,29.68,SSE,160,0.0,0.0,91,0.00,,,0.07,WeatherDisplay:10.37,2013-07-23 12:59:00,
2013-07-23 09:04:00,69.2,66.1,29.68,SSE,160,0.0,0.0,90,0.00,,,0.07,WeatherDisplay:10.37,2013-07-23 13:04:00,
2013-07-23 09:09:00,69.2,66.5,29.67,NW,319,1.1,1.1,91,0.00,,,0.07,WeatherDisplay:10.37,2013-07-23 13:09:00,
2013-07-23 09:14:00,69.4,66.7,29.67,SSW,195,1.1,0.0,91,0.00,,,0.07,WeatherDisplay:10.37,2013-07-23 13:14:00,
2013-07-23 09:19:00,69.9,67.2,29.67,SE,131,0.0,0.0,91,0.00,,,0.07,WeatherDisplay:10.37,2013-07-23 13:19:00,
2013-07-23 09:24:00,70.3,67.9,29.67,SSW,208,3.5,3.5,92,0.00,,,0.07,WeatherDisplay:10.37,2013-07-23 13:24:00,
2013-07-23 09:29:00,70.5,68.1,29.67,WNW,295,1.1,1.1,92,0.00,,,0.07,WeatherDisplay:10.37,2013-07-23 13:29:00,
2013-07-23 09:34:00,70.8,68.4,29.67,SSE,160,1.1,1.1,92,0.00,,,0.07,WeatherDisplay:10.37,2013-07-23 13:34:00,
2013-07-23 09:39:00,70.9,68.5,29.67,SE,131,2.3,2.3,92,0.00,,,0.07,WeatherDisplay:10.37,2013-07-23 13:39:00,
2013-07-23 09:44:00,71.3,68.9,29.67,SW,217,3.5,3.5,92,0.00,,,0.07,WeatherDisplay:10.37,2013-07-23 13:44:00,
2013-07-23 09:49:00,71.7,69.3,29.67,NNW,330,3.5,3.5,92,0.00,,,0.07,WeatherDisplay:10.37,2013-07-23 13:49:00,
2013-07-23 09:54:00,72.3,69.5,29.67,SSW,203,3.0,3.0,91,0.00,,,0.07,WeatherDisplay:10.37,2013-07-23 13:54:00,
2013-07-23 09:59:00,73.1,70.0,29.67,NW,305,3.5,3.5,90,0.00,,,0.07,WeatherDisplay:10.37,2013-07-23 13:59:00,
2013-07-23 10:04:00,74.1,70.6,29.67,ESE,114,1.1,1.1,89,0.00,,,0.07,WeatherDisplay:10.37,2013-07-23 14:04:00,
2013-07-23 10:09:00,74.2,69.7,29.67,WNW,295,1.1,0.0,86,0.00,,,0.07,WeatherDisplay:10.37,2013-07-23 14:09:00,
2013-07-23 10:14:00,74.6,70.5,29.67,SSE,153,3.5,3.5,87,0.00,,,0.07,WeatherDisplay:10.37,2013-07-23 14:14:00,
2013-07-23 10:19:00,75.0,70.9,29.67,West,266,1.1,1.1,87,0.00,,,0.07,WeatherDisplay:10.37,2013-07-23 14:19:00,
2013-07-23 10:24:00,75.2,70.4,29.67,SSW,207,0.0,0.0,85,0.00,,,0.07,WeatherDisplay:10.37,2013-07-23 14:24:00,
2013-07-23 10:29:00,75.0,70.5,29.67,WSW,240,2.3,0.0,86,0.00,,,0.07,WeatherDisplay:10.37,2013-07-23 14:29:00,
2013-07-23 10:34:00,75.1,70.3,29.67,SE,135,2.3,2.3,85,0.00,,,0.07,WeatherDisplay:10.37,2013-07-23 14:34:00,
2013-07-23 10:39:00,75.2,70.4,29.67,SSE,155,1.1,1.1,85,0.00,,,0.07,WeatherDisplay:10.37,2013-07-23 14:39:00,
2013-07-23 10:44:00,75.9,71.1,29.67,WSW,248,1.0,1.0,85,0.00,,,0.07,WeatherDisplay:10.37,2013-07-23 14:44:00,
2013-07-23 10:49:00,77.1,71.5,29.67,ESE,115,2.3,2.3,83,0.00,,,0.07,WeatherDisplay:10.37,2013-07-23 14:49:00,
2013-07-23 10:54:00,77.6,70.9,29.67,West,266,2.3,2.3,80,0.00,,,0.07,WeatherDisplay:10.37,2013-07-23 14:54:00,
2013-07-23 10:59:00,77.2,69.8,29.67,NE,54,3.5,3.5,78,0.00,,,0.07,WeatherDisplay:10.37,2013-07-23 14:59:00,
2013-07-23 11:04:00,77.0,70.4,29.67,NW,321,3.5,3.5,80,0.00,,,0.07,WeatherDisplay:10.37,2013-07-23 15:04:00,
2013-07-23 11:09:00,76.6,70.3,29.67,WSW,252,2.3,2.3,81,0.00,,,0.07,WeatherDisplay:10.37,2013-07-23 15:09:00,
2013-07-23 11:14:00,77.0,70.7,29.67,West,277,3.5,3.5,81,0.00,,,0.07,WeatherDisplay:10.37,2013-07-23 15:14:00,
2013-07-23 11:19:00,77.3,70.3,29.68,WSW,252,3.5,3.5,79,0.00,,,0.07,WeatherDisplay:10.37,2013-07-23 15:19:00,
2013-07-23 11:24:00,77.0,71.1,29.68,WNW,287,3.5,3.5,82,0.00,,,0.07,WeatherDisplay:10.37,2013-07-23 15:24:00,
2013-07-23 11:29:00,77.6,71.3,29.67,North,9,3.5,3.5,81,0.00,,,0.07,WeatherDisplay:10.37,2013-07-23 15:29:00,
2013-07-23 11:35:00,77.6,70.6,29.68,WSW,246,1.1,0.0,79,0.00,,,0.07,WeatherDisplay:10.37,2013-07-23 15:35:00,
2013-07-23 11:40:00,77.9,70.9,29.67,South,169,2.3,2.3,79,0.00,,,0.07,WeatherDisplay:10.37,2013-07-23 15:40:00,
2013-07-23 11:45:00,78.5,71.1,29.67,WSW,245,3.5,3.5,78,0.00,,,0.07,WeatherDisplay:10.37,2013-07-23 15:45:00,
2013-07-23 11:50:00,79.0,70.4,29.66,ESE,108,2.3,2.3,75,0.00,,,0.07,WeatherDisplay:10.37,2013-07-23 15:50:00,
2013-07-23 11:55:00,79.9,70.9,29.66,ESE,121,0.0,0.0,74,0.00,,,0.07,WeatherDisplay:10.37,2013-07-23 15:55:00,
2013-07-23 12:00:00,80.0,70.6,29.65,West,262,2.3,2.3,73,0.00,,,0.07,WeatherDisplay:10.37,2013-07-23 16:00:00,
2013-07-23 12:05:00,80.5,70.2,29.65,SW,228,0.0,0.0,71,0.00,,,0.07,WeatherDisplay:10.37,2013-07-23 16:05:00,
2013-07-23 12:10:00,81.1,70.0,29.65,SSE,156,3.5,3.5,69,0.00,,,0.07,WeatherDisplay:10.37,2013-07-23 16:10:00,
2013-07-23 12:15:00,81.7,71.0,29.65,SW,217,1.1,1.1,70,0.00,,,0.07,WeatherDisplay:10.37,2013-07-23 16:15:00,
2013-07-23 12:20:00,82.1,70.9,29.65,South,186,2.3,2.3,69,0.00,,,0.07,WeatherDisplay:10.37,2013-07-23 16:20:00,
2013-07-23 12:25:00,83.0,72.2,29.65,WNW,285,2.0,2.0,70,0.00,,,0.07,WeatherDisplay:10.37,2013-07-23 16:25:00,
2013-07-23 12:30:00,82.0,69.5,29.65,WNW,298,5.8,5.8,66,0.00,,,0.07,WeatherDisplay:10.37,2013-07-23 16:30:00,
2013-07-23 12:35:00,81.1,70.4,29.65,NNE,23,2.3,2.3,70,0.00,,,0.07,WeatherDisplay:10.37,2013-07-23 16:35:00,
2013-07-23 12:40:00,81.1,68.7,29.65,West,278,4.0,4.0,66,0.00,,,0.07,WeatherDisplay:10.37,2013-07-23 16:40:00,
2013-07-23 12:45:00,80.5,69.8,29.65,WSW,253,1.1,1.1,70,0.00,,,0.07,WeatherDisplay:10.37,2013-07-23 16:45:00,
2013-07-23 12:50:00,80.2,70.4,29.65,WNW,293,3.5,3.5,72,0.00,,,0.07,WeatherDisplay:10.37,2013-07-23 16:50:00,
2013-07-23 12:55:00,80.5,71.0,29.64,SE,129,1.1,1.1,73,0.00,,,0.07,WeatherDisplay:10.37,2013-07-23 16:55:00,
2013-07-23 13:00:00,81.0,71.5,29.64,NNE,28,1.1,1.1,73,0.00,,,0.07,WeatherDisplay:10.37,2013-07-23 17:00:00,
2013-07-23 13:05:00,81.9,72.0,29.64,NW,312,2.3,2.3,72,0.00,,,0.07,WeatherDisplay:10.37,2013-07-23 17:05:00,
2013-07-23 13:10:00,82.8,71.6,29.64,ESE,105,1.1,1.1,69,0.00,,,0.07,WeatherDisplay:10.37,2013-07-23 17:10:00,
2013-07-23 13:15:00,83.4,72.6,29.64,SW,228,1.1,1.1,70,0.00,,,0.07,WeatherDisplay:10.37,2013-07-23 17:15:00,
2013-07-23 13:20:00,83.7,71.6,29.64,WSW,255,2.3,2.3,67,0.00,,,0.07,WeatherDisplay:10.37,2013-07-23 17:20:00,
2013-07-23 13:25:00,83.5,70.5,29.64,SSE,153,1.1,1.1,65,0.00,,,0.07,WeatherDisplay:10.37,2013-07-23 17:25:00,
2013-07-23 13:30:00,83.7,71.1,29.64,ESE,111,2.3,2.3,66,0.00,,,0.07,WeatherDisplay:10.37,2013-07-23 17:30:00,
2013-07-23 13:35:00,83.6,70.6,29.63,East,79,1.1,1.1,65,0.00,,,0.07,WeatherDisplay:10.37,2013-07-23 17:35:00,
2013-07-23 13:40:00,83.6,71.5,29.63,West,262,2.3,2.3,67,0.00,,,0.07,WeatherDisplay:10.37,2013-07-23 17:40:00,
2013-07-23 13:45:00,84.1,72.0,29.63,NE,46,3.5,3.5,67,0.00,,,0.07,WeatherDisplay:10.37,2013-07-23 17:45:00,
2013-07-23 13:50:00,84.2,72.0,29.62,NNE,18,1.0,1.0,67,0.00,,,0.07,WeatherDisplay:10.37,2013-07-23 17:50:00,
2013-07-23 13:55:00,84.1,71.5,29.62,SSE,165,1.1,1.1,66,0.00,,,0.07,WeatherDisplay:10.37,2013-07-23 17:55:00,
2013-07-23 14:00:00,84.0,71.0,29.62,WNW,298,2.3,2.3,65,0.00,,,0.07,WeatherDisplay:10.37,2013-07-23 18:00:00,
2013-07-23 14:06:00,84.4,71.3,29.62,SSE,150,3.0,3.0,65,0.00,,,0.07,WeatherDisplay:10.37,2013-07-23 18:06:00,
2013-07-23 14:11:00,83.9,70.4,29.62,SE,146,3.5,3.5,64,0.00,,,0.07,WeatherDisplay:10.37,2013-07-23 18:11:00,
2013-07-23 14:16:00,84.0,71.9,29.62,SE,137,4.6,4.6,67,0.00,,,0.07,WeatherDisplay:10.37,2013-07-23 18:16:00,
2013-07-23 14:21:00,83.7,72.0,29.62,SE,141,1.1,0.0,68,0.00,,,0.07,WeatherDisplay:10.37,2013-07-23 18:21:00,
2013-07-23 14:26:00,83.6,71.9,29.62,West,266,2.3,2.3,68,0.00,,,0.07,WeatherDisplay:10.37,2013-07-23 18:26:00,
2013-07-23 14:31:00,83.7,70.7,29.62,SSE,152,3.5,3.5,65,0.00,,,0.07,WeatherDisplay:10.37,2013-07-23 18:31:00,
2013-07-23 14:36:00,84.3,72.6,29.61,West,270,4.0,4.0,68,0.00,,,0.07,WeatherDisplay:10.37,2013-07-23 18:36:00,
2013-07-23 14:41:00,84.3,71.2,29.62,SE,125,2.3,2.3,65,0.00,,,0.07,WeatherDisplay:10.37,2013-07-23 18:41:00,
2013-07-23 14:46:00,84.1,72.4,29.61,ESE,111,2.3,2.3,68,0.00,,,0.07,WeatherDisplay:10.37,2013-07-23 18:46:00,
2013-07-23 14:52:00,84.3,70.8,29.61,WNW,295,1.1,1.1,64,0.00,,,0.07,WeatherDisplay:10.37,2013-07-23 18:52:00,
2013-07-23 14:57:00,84.3,71.2,29.61,WSW,252,2.3,2.3,65,0.00,,,0.07,WeatherDisplay:10.37,2013-07-23 18:57:00,
2013-07-23 15:02:00,84.5,71.4,29.61,SSW,194,3.0,3.0,65,0.00,,,0.07,WeatherDisplay:10.37,2013-07-23 19:02:00,
2013-07-23 15:07:00,84.4,71.3,29.60,NNE,27,5.0,5.0,65,0.00,,,0.07,WeatherDisplay:10.37,2013-07-23 19:07:00,
2013-07-23 15:12:00,84.2,70.7,29.60,SSE,151,4.6,0.0,64,0.00,,,0.07,WeatherDisplay:10.37,2013-07-23 19:12:00,
2013-07-23 15:17:00,84.4,71.3,29.60,ESE,121,2.0,2.0,65,0.00,,,0.07,WeatherDisplay:10.37,2013-07-23 19:17:00,
2013-07-23 15:23:00,84.4,70.9,29.60,West,260,1.1,1.1,64,0.00,,,0.07,WeatherDisplay:10.37,2013-07-23 19:23:00,
2013-07-23 15:28:00,84.6,71.1,29.60,West,262,1.1,1.1,64,0.00,,,0.07,WeatherDisplay:10.37,2013-07-23 19:28:00,
2013-07-23 15:33:00,84.8,72.2,29.60,NNE,18,2.3,2.3,66,0.00,,,0.07,WeatherDisplay:10.37,2013-07-23 19:33:00,
2013-07-23 15:38:00,84.8,71.3,29.60,ESE,104,2.3,2.3,64,0.00,,,0.07,WeatherDisplay:10.37,2013-07-23 19:38:00,
2013-07-23 15:43:00,85.0,70.5,29.60,SW,233,2.3,2.3,62,0.00,,,0.07,WeatherDisplay:10.37,2013-07-23 19:43:00,
2013-07-23 15:48:00,85.4,71.8,29.60,NNE,16,1.0,1.0,64,0.00,,,0.07,WeatherDisplay:10.37,2013-07-23 19:48:00,
2013-07-23 15:53:00,85.7,71.2,29.59,SSW,211,4.6,4.6,62,0.00,,,0.07,WeatherDisplay:10.37,2013-07-23 19:53:00,
2013-07-23 15:58:00,85.6,71.1,29.59,SW,236,3.5,3.5,62,0.00,,,0.07,WeatherDisplay:10.37,2013-07-23 19:58:00,
2013-07-23 16:03:00,85.4,70.9,29.59,WSW,246,3.5,3.5,62,0.00,,,0.07,WeatherDisplay:10.37,2013-07-23 20:03:00,
2013-07-23 16:08:00,85.4,69.9,29.59,West,273,2.3,2.3,60,0.00,,,0.07,WeatherDisplay:10.37,2013-07-23 20:08:00,
2013-07-23 16:13:00,85.7,70.2,29.59,SE,134,3.5,3.5,60,0.00,,,0.07,WeatherDisplay:10.37,2013-07-23 20:13:00,
2013-07-23 16:19:00,86.0,70.5,29.59,ESE,108,5.0,5.0,60,0.00,,,0.07,WeatherDisplay:10.37,2013-07-23 20:19:00,
2013-07-23 16:24:00,85.5,71.5,29.59,WNW,294,1.1,1.1,63,0.00,,,0.07,WeatherDisplay:10.37,2013-07-23 20:24:00,
2013-07-23 16:29:00,85.4,71.8,29.58,West,278,2.3,2.3,64,0.00,,,0.07,WeatherDisplay:10.37,2013-07-23 20:29:00,
2013-07-23 16:34:00,85.3,71.3,29.58,SE,124,1.1,1.1,63,0.00,,,0.07,WeatherDisplay:10.37,2013-07-23 20:34:00,
2013-07-23 16:40:00,85.4,71.8,29.59,ESE,108,4.6,4.6,64,0.00,,,0.07,WeatherDisplay:10.37,2013-07-23 20:40:00,
2013-07-23 16:45:00,85.6,69.6,29.59,NNE,15,5.8,5.8,59,0.00,,,0.07,WeatherDisplay:10.37,2013-07-23 20:45:00,
2013-07-23 16:50:00,85.6,68.6,29.59,West,270,3.5,3.5,57,0.00,,,0.07,WeatherDisplay:10.37,2013-07-23 20:50:00,
2013-07-23 16:55:00,85.4,67.9,29.59,ESE,117,5.8,5.8,56,0.00,,,0.07,WeatherDisplay:10.37,2013-07-23 20:55:00,
2013-07-23 17:00:00,85.0,67.0,29.59,NNW,348,3.5,3.5,55,0.00,,,0.07,WeatherDisplay:10.37,2013-07-23 21:00:00,
2013-07-23 17:05:00,84.5,69.6,29.59,West,271,8.1,8.1,61,0.00,,,0.07,WeatherDisplay:10.37,2013-07-23 21:05:00,
2013-07-23 17:10:00,84.2,68.3,29.59,ENE,62,3.5,3.5,59,0.00,,,0.07,WeatherDisplay:10.37,2013-07-23 21:10:00,
2013-07-23 17:15:00,84.1,66.7,29.59,SW,226,10.4,10.4,56,0.00,,,0.07,WeatherDisplay:10.37,2013-07-23 21:15:00,
2013-07-23 17:20:00,83.6,68.7,29.59,ENE,75,2.3,2.3,61,0.00,,,0.07,WeatherDisplay:10.37,2013-07-23 21:20:00,
2013-07-23 17:25:00,83.7,66.8,29.59,West,266,3.5,3.5,57,0.00,,,0.07,WeatherDisplay:10.37,2013-07-23 21:25:00,
2013-07-23 17:30:00,83.4,67.1,29.59,West,260,1.1,1.1,58,0.00,,,0.07,WeatherDisplay:10.37,2013-07-23 21:30:00,
2013-07-23 17:35:00,83.5,69.1,29.59,West,260,1.1,1.1,62,0.00,,,0.07,WeatherDisplay:10.37,2013-07-23 21:35:00,
2013-07-23 17:40:00,83.5,67.2,29.59,West,278,9.2,9.2,58,0.00,,,0.07,WeatherDisplay:10.37,2013-07-23 21:40:00,
2013-07-23 17:45:00,83.4,67.6,29.59,North,360,5.8,5.8,59,0.00,,,0.07,WeatherDisplay:10.37,2013-07-23 21:45:00,
2013-07-23 17:50:00,83.2,67.4,29.59,West,263,4.0,4.0,59,0.00,,,0.07,WeatherDisplay:10.37,2013-07-23 21:50:00,
2013-07-23 17:55:00,83.1,67.8,29.59,West,260,2.3,2.3,60,0.00,,,0.07,WeatherDisplay:10.37,2013-07-23 21:55:00,
2013-07-23 18:00:00,83.0,67.2,29.59,NW,304,4.0,4.0,59,0.00,,,0.07,WeatherDisplay:10.37,2013-07-23 22:00:00,
2013-07-23 18:05:00,82.5,67.2,29.59,North,356,1.1,0.0,60,0.00,,,0.07,WeatherDisplay:10.37,2013-07-23 22:05:00,
2013-07-23 18:11:00,81.5,67.2,29.59,West,276,3.5,3.5,62,0.00,,,0.07,WeatherDisplay:10.37,2013-07-23 22:11:00,
2013-07-23 18:16:00,81.0,66.3,29.59,WNW,302,4.0,4.0,61,0.00,,,0.07,WeatherDisplay:10.37,2013-07-23 22:16:00,
2013-07-23 18:21:00,80.7,68.3,29.59,NNW,330,1.1,1.1,66,0.00,,,0.07,WeatherDisplay:10.37,2013-07-23 22:21:00,
2013-07-23 18:26:00,80.8,67.0,29.59,WNW,302,4.6,4.6,63,0.00,,,0.07,WeatherDisplay:10.37,2013-07-23 22:26:00,
2013-07-23 18:31:00,81.3,68.0,29.59,WNW,288,6.0,6.0,64,0.00,,,0.07,WeatherDisplay:10.37,2013-07-23 22:31:00,
2013-07-23 18:36:00,81.6,68.2,29.59,North,360,4.6,4.6,64,0.00,,,0.07,WeatherDisplay:10.37,2013-07-23 22:36:00,
2013-07-23 18:41:00,81.4,67.6,29.59,NE,47,2.0,2.0,63,0.00,,,0.07,WeatherDisplay:10.37,2013-07-23 22:41:00,
2013-07-23 18:47:00,80.8,67.5,29.59,SW,226,4.6,4.6,64,0.00,,,0.07,WeatherDisplay:10.37,2013-07-23 22:47:00,
2013-07-23 18:52:00,80.3,67.9,29.59,West,261,3.5,3.5,66,0.00,,,0.07,WeatherDisplay:10.37,2013-07-23 22:52:00,
2013-07-23 18:57:00,79.7,69.0,29.59,West,263,1.1,1.1,70,0.00,,,0.07,WeatherDisplay:10.37,2013-07-23 22:57:00,
2013-07-23 19:02:00,79.1,68.1,29.59,NW,309,0.0,0.0,69,0.00,,,0.07,WeatherDisplay:10.37,2013-07-23 23:02:00,
2013-07-23 19:07:00,78.7,68.1,29.60,SW,235,2.3,2.3,70,0.00,,,0.07,WeatherDisplay:10.37,2013-07-23 23:07:00,
2013-07-23 19:12:00,78.4,68.2,29.60,NNE,19,2.3,2.3,71,0.00,,,0.07,WeatherDisplay:10.37,2013-07-23 23:12:00,
2013-07-23 19:17:00,78.2,68.4,29.60,NNE,16,0.0,0.0,72,0.00,,,0.07,WeatherDisplay:10.37,2013-07-23 23:17:00,
2013-07-23 19:22:00,77.9,68.9,29.60,NE,37,0.0,0.0,74,0.00,,,0.07,WeatherDisplay:10.37,2013-07-23 23:22:00,
2013-07-23 19:27:00,77.5,68.9,29.60,North,352,0.0,0.0,75,0.00,,,0.07,WeatherDisplay:10.37,2013-07-23 23:27:00,
2013-07-23 19:33:00,77.2,68.7,29.60,NE,41,1.1,0.0,75,0.00,,,0.07,WeatherDisplay:10.37,2013-07-23 23:33:00,
2013-07-23 19:38:00,77.0,68.9,29.60,East,98,0.0,0.1,76,0.00,,,0.07,WeatherDisplay:10.37,2013-07-23 23:38:00,
2013-07-23 19:43:00,76.8,68.7,29.60,SW,214,0.0,0.0,76,0.00,,,0.07,WeatherDisplay:10.37,2013-07-23 23:43:00,
2013-07-23 19:48:00,76.5,68.7,29.60,SW,214,0.0,0.0,77,0.00,,,0.07,WeatherDisplay:10.37,2013-07-23 23:48:00,
2013-07-23 19:53:00,76.3,68.6,29.60,NW,322,2.3,2.3,77,0.00,,,0.07,WeatherDisplay:10.37,2013-07-23 23:53:00,
2013-07-23 19:58:00,76.3,68.6,29.60,NW,304,0.0,0.0,77,0.00,,,0.07,WeatherDisplay:10.37,2013-07-23 23:58:00,
2013-07-23 20:03:00,76.3,68.9,29.60,NW,321,1.0,0.0,78,0.00,,,0.07,WeatherDisplay:10.37,2013-07-24 00:03:00,
2013-07-23 20:08:00,76.0,69.0,29.59,ESE,120,1.0,1.0,79,0.00,,,0.07,WeatherDisplay:10.37,2013-07-24 00:08:00,
2013-07-23 20:13:00,75.8,68.8,29.59,ESE,120,1.1,0.0,79,0.00,,,0.07,WeatherDisplay:10.37,2013-07-24 00:13:00,
2013-07-23 20:18:00,75.6,69.0,29.59,WSW,246,0.0,0.0,80,0.00,,,0.07,WeatherDisplay:10.37,2013-07-24 00:18:00,
2013-07-23 20:23:00,75.4,68.8,29.59,WSW,257,0.0,0.0,80,0.00,,,0.07,WeatherDisplay:10.37,2013-07-24 00:23:00,
2013-07-23 20:28:00,75.1,68.9,29.59,WSW,257,0.0,0.0,81,0.00,,,0.07,WeatherDisplay:10.37,2013-07-24 00:28:00,
2013-07-23 20:33:00,74.9,68.3,29.59,WNW,282,2.3,2.3,80,0.00,,,0.07,WeatherDisplay:10.37,2013-07-24 00:33:00,
2013-07-23 20:38:00,74.9,68.7,29.58,WNW,283,0.0,0.0,81,0.00,,,0.07,WeatherDisplay:10.37,2013-07-24 00:38:00,
2013-07-23 20:43:00,74.7,68.5,29.58,WNW,283,0.0,0.0,81,0.00,,,0.07,WeatherDisplay:10.37,2013-07-24 00:43:00,
2013-07-23 20:49:00,74.6,68.4,29.58,SSE,150,1.0,1.0,81,0.00,,,0.07,WeatherDisplay:10.37,2013-07-24 00:49:00,
2013-07-23 20:54:00,74.5,68.6,29.59,SSE,150,0.0,0.0,82,0.00,,,0.07,WeatherDisplay:10.37,2013-07-24 00:54:00,
2013-07-23 20:59:00,74.3,68.1,29.59,SSE,151,0.0,0.0,81,0.00,,,0.07,WeatherDisplay:10.37,2013-07-24 00:59:00,
2013-07-23 21:04:00,74.1,68.3,29.59,SSE,150,0.0,0.0,82,0.00,,,0.07,WeatherDisplay:10.37,2013-07-24 01:04:00,
2013-07-23 21:09:00,74.0,68.5,29.59,SSE,151,0.0,0.0,83,0.00,,,0.07,WeatherDisplay:10.37,2013-07-24 01:09:00,
2013-07-23 21:14:00,73.7,68.2,29.60,SSE,150,0.0,0.0,83,0.00,,,0.07,WeatherDisplay:10.37,2013-07-24 01:14:00,
2013-07-23 21:19:00,73.7,68.2,29.60,SE,135,0.0,0.0,83,0.00,,,0.07,WeatherDisplay:10.37,2013-07-24 01:19:00,
2013-07-23 21:24:00,73.7,67.9,29.60,SE,136,0.0,0.0,82,0.00,,,0.07,WeatherDisplay:10.37,2013-07-24 01:24:00,
2013-07-23 21:29:00,73.6,68.1,29.61,SE,135,0.0,0.0,83,0.00,,,0.07,WeatherDisplay:10.37,2013-07-24 01:29:00,
2013-07-23 21:34:00,73.4,67.9,29.61,SE,136,0.0,0.0,83,0.00,,,0.07,WeatherDisplay:10.37,2013-07-24 01:34:00,
2013-07-23 21:39:00,73.4,68.3,29.61,SE,135,0.0,0.0,84,0.00,,,0.07,WeatherDisplay:10.37,2013-07-24 01:39:00,
2013-07-23 21:44:00,73.3,68.5,29.61,SE,134,0.0,0.0,85,0.00,,,0.07,WeatherDisplay:10.37,2013-07-24 01:44:00,
2013-07-23 21:49:00,73.2,68.8,29.61,SE,134,0.0,0.0,86,0.00,,,0.07,WeatherDisplay:10.37,2013-07-24 01:49:00,
2013-07-23 21:54:00,73.1,68.7,29.62,WSW,250,0.0,0.0,86,0.00,,,0.07,WeatherDisplay:10.37,2013-07-24 01:54:00,
2013-07-23 21:59:00,73.1,68.3,29.62,ENE,63,0.0,0.0,85,0.00,,,0.07,WeatherDisplay:10.37,2013-07-24 01:59:00,
2013-07-23 22:04:00,73.0,68.2,29.62,WNW,302,1.1,1.1,85,0.00,,,0.07,WeatherDisplay:10.37,2013-07-24 02:04:00,
2013-07-23 22:09:00,73.1,68.3,29.62,WNW,289,0.0,0.0,85,0.00,,,0.07,WeatherDisplay:10.37,2013-07-24 02:09:00,
2013-07-23 22:14:00,72.9,68.5,29.62,NW,316,0.0,0.0,86,0.00,,,0.07,WeatherDisplay:10.37,2013-07-24 02:14:00,
2013-07-23 22:20:00,72.7,68.6,29.63,West,264,0.0,0.0,87,0.00,,,0.07,WeatherDisplay:10.37,2013-07-24 02:20:00,
2013-07-23 22:26:00,72.4,68.6,29.63,SSW,201,4.6,0.0,88,0.00,,,0.07,WeatherDisplay:10.37,2013-07-24 02:26:00,
2013-07-23 22:31:00,72.1,68.7,29.63,SW,224,4.0,4.0,89,0.00,,,0.07,WeatherDisplay:10.37,2013-07-24 02:31:00,
2013-07-23 22:36:00,72.0,68.9,29.63,West,266,2.3,2.3,90,0.00,,,0.07,WeatherDisplay:10.37,2013-07-24 02:36:00,
2013-07-23 22:41:00,71.9,68.5,29.63,WSW,246,1.1,0.0,89,0.00,,,0.07,WeatherDisplay:10.37,2013-07-24 02:41:00,
2013-07-23 22:46:00,71.8,68.4,29.63,ENE,58,2.0,2.0,89,0.00,,,0.07,WeatherDisplay:10.37,2013-07-24 02:46:00,
2013-07-23 22:51:00,71.6,67.9,29.63,NW,313,3.5,3.5,88,0.00,,,0.07,WeatherDisplay:10.37,2013-07-24 02:51:00,
2013-07-23 22:56:00,71.3,67.2,29.63,WSW,257,2.3,2.3,87,0.00,,,0.07,WeatherDisplay:10.37,2013-07-24 02:56:00,
2013-07-23 23:01:00,71.0,66.9,29.63,WNW,294,2.3,2.3,87,0.00,,,0.07,WeatherDisplay:10.37,2013-07-24 03:01:00,
2013-07-23 23:06:00,70.6,66.2,29.64,WNW,301,3.5,3.5,86,0.00,,,0.07,WeatherDisplay:10.37,2013-07-24 03:06:00,
2013-07-23 23:11:00,70.3,65.2,29.64,SW,229,3.5,3.5,84,0.00,,,0.07,WeatherDisplay:10.37,2013-07-24 03:11:00,
2013-07-23 23:16:00,70.0,64.6,29.65,WNW,283,8.0,8.0,83,0.00,,,0.07,WeatherDisplay:10.37,2013-07-24 03:16:00,
2013-07-23 23:22:00,69.7,63.3,29.65,West,280,7.0,7.0,80,0.00,,,0.07,WeatherDisplay:10.37,2013-07-24 03:22:00,
2013-07-23 23:27:00,69.5,63.4,29.65,ESE,114,6.0,6.0,81,0.00,,,0.07,WeatherDisplay:10.37,2013-07-24 03:27:00,
2013-07-23 23:32:00,69.3,62.9,29.65,WSW,239,4.6,4.6,80,0.00,,,0.07,WeatherDisplay:10.37,2013-07-24 03:32:00,
2013-07-23 23:37:00,69.1,62.7,29.65,SSE,159,4.6,4.6,80,0.00,,,0.07,WeatherDisplay:10.37,2013-07-24 03:37:00,
2013-07-23 23:42:00,68.9,62.5,29.66,NNW,330,3.5,3.5,80,0.00,,,0.07,WeatherDisplay:10.37,2013-07-24 03:42:00,
2013-07-23 23:47:00,68.8,62.4,29.66,WSW,255,7.0,7.0,80,0.00,,,0.07,WeatherDisplay:10.37,2013-07-24 03:47:00,
2013-07-23 23:53:00,68.8,62.0,29.66,WSW,257,1.1,1.1,79,0.00,,,0.07,WeatherDisplay:10.37,2013-07-24 03:53:00,
2013-07-23 23:58:00,68.6,61.8,29.67,SW,229,4.0,4.0,79,0.00,,,0.07,WeatherDisplay:10.37,2013-07-24 03:58:00,